Flag for USA

Past Weather in Sierra Vista, Arizona, USA — Yesterday and Last 2 Weeks

Now
76 °F

Sunny.


Feels Like: 78 °F
Forecast: 96 / 70 °F
Wind: No wind

Location: Fort Huachuca

Current Time: Jul 5, 2020 at 7:58:49 am

Latest Report: Jul 5, 2020 at 6:58 am


Visibility: 10 mi

Pressure: 29.91 "Hg (25.50 "Hg at 1390m altitude)

Humidity: 48%

Dew Point: 55 °F

Location of Sierra VistaLocation

Past Weather in Sierra Vista — Graph

°F

Sierra Vista Temperature Yesterday

Maximum temperature yesterday: 94 °F (at 3:58 pm)
Minimum temperature yesterday: 68 °F (at 4:58 am)
Average temperature yesterday: 83 °F

High & Low Weather Summary for the Past Weeks

 TemperatureHumidityPressure
High100 °F (Jun 25, 3:31 pm)89% (Jul 2, 8:58 am)30.07 "Hg (Jul 2, 8:58 am)
Low63 °F (Jul 3, 4:58 am)5% (Jun 23, 3:58 pm)29.68 "Hg (Jun 28, 5:58 pm)
Average81 °F29%29.85 "Hg
* Reported Jun 20 6:58 am — Jul 5 6:58 am, Sierra Vista. Weather by CustomWeather, © 2020

Note: Actual official high and low records may vary slightly from our data, if they occured in-between our weather recording intervals... More about our weather records

Sierra Vista Weather History for the Previous 24 Hours

Scroll right to see more
 ConditionsComfort  
Time TempWeatherWind HumidityBarometerVisibility
6:58 am
Sun, Jul 5
76 °FSunny.No wind48%29.91 "Hg10 mi
5:58 am71 °FSunny.3 mph52%29.92 "Hg9 mi
4:58 am69 °FClear.No wind63%29.91 "Hg10 mi
3:58 am70 °FClear.No wind59%29.90 "Hg10 mi
2:58 am70 °FClear.No wind59%29.90 "Hg10 mi
1:58 am75 °FClear.No wind43%29.89 "Hg10 mi
12:58 am79 °FClear.10 mph37%29.89 "Hg10 mi
11:58 pm
Sat, Jul 4
76 °FPassing clouds.3 mph48%29.91 "Hg10 mi
10:58 pm76 °FClear.6 mph47%29.90 "Hg10 mi
9:58 pm80 °FOvercast.3 mph37%29.90 "Hg10 mi
9:16 pm82 °FOvercast.5 mph32%29.90 "Hg9 mi
8:58 pm84 °FMostly cloudy.6 mph29%29.88 "Hg10 mi
7:58 pm84 °FOvercast.13 mph29%29.86 "Hg9 mi
7:44 pm84 °FPassing clouds.12 mph27%29.86 "Hg9 mi
6:58 pm88 °FOvercast.13 mph23%29.84 "Hg10 mi
5:58 pm89 °FMostly cloudy.12 mph25%29.84 "Hg10 mi
4:58 pm90 °FScattered clouds.13 mph23%29.86 "Hg10 mi
3:58 pm94 °FThundershowers. Partly sunny.13 mph19%29.84 "Hg10 mi
3:28 pm93 °FPartly sunny.12 mph19%29.84 "Hg10 mi
2:58 pm93 °FPartly sunny.7 mph21%29.86 "Hg10 mi
2:22 pm91 °FPartly sunny.3 mph23%29.88 "Hg10 mi
1:58 pm93 °FSunny.5 mph22%29.89 "Hg10 mi
1:16 pm91 °FSunny.No wind23%29.90 "Hg10 mi
12:58 pm91 °FSunny.6 mph25%29.93 "Hg10 mi
12:34 pm91 °FSunny.3 mph28%29.93 "Hg10 mi
11:58 am89 °FSunny.5 mph29%29.94 "Hg10 mi
10:58 am87 °FSunny.No wind31%29.97 "Hg10 mi
9:58 am85 °FSunny.3 mph35%29.98 "Hg10 mi
8:58 am82 °FSunny.No wind39%29.97 "Hg10 mi
7:58 am79 °FSunny.No wind45%29.98 "Hg8 mi
Weather by CustomWeather, © 2020

See weather overview